Regional Weather Roundup
Issued by NWS Upton, NY

Current Version | Previous Version | Text Only | Print | Product List | Glossary On
Versions: 1 2 3 4 5 6 7 8 9 10 11 12 13 14 15 16 17 18 19 20 21 22 23 24 25 26 27
000 ASUS41 KOKX 290409 RWROKX REGIONAL WEATHER ROUNDUP NATIONAL WEATHER SERVICE NEW YORK NY 1200 AM EDT THU JUN 29 2017 NOTE: "FAIR" INDICATES FEW OR NO CLOUDS BELOW 12,000 FEET WITH NO SIGNIFICANT WEATHER AND/OR OBSTRUCTIONS TO VISIBILITY. NYZ071-072-176-178-NJZ106-104-290500- NEW YORK CITY METRO AREA CITY SKY/WX TMP DP RH WIND PRES REMARKS Central Park PTCLDY 73 50 44 CALM 30.15R Bronx Bot Gard N/A 73 48 40 SW8 30.13S LaGuardia APRT CLOUDY 75 52 44 SW8 30.11S Kennedy INTL CLOUDY 70 58 65 SW13 30.14R Breezy Point N/A 66 N/A N/A SW8 N/A Newark/Liberty CLOUDY 72 50 45 SW9 30.12R Teterboro CLOUDY 72 50 45 SW8 30.11R $$ NYZ177-179-078>081-290500- LONG ISLAND NEW YORK CITY SKY/WX TMP DP RH WIND PRES REMARKS Jones Beach N/A 66 N/A N/A SW6G12 N/A Matinecock PT N/A N/A N/A N/A S6G12 N/A Farmingdale CLOUDY 68 60 75 SW3 30.13R MacArthur/ISP MOCLDY 67 61 81 SW6 30.12S Shirley PTCLDY 68 62 81 SW7 30.13S Mt Sinai Harb N/A 66 N/A N/A SW7 N/A Westhampton CLOUDY 66 58 75 SW7 30.14S East Hampton FAIR 64 59 85 SW3 30.12S Montauk N/A 67 61 81 SW7 30.14S $$ NYZ052-065-067-290500- HUDSON VALLEY CITY SKY/WX TMP DP RH WIND PRES REMARKS White Plains CLOUDY 68 52 56 VRB3 30.12R Larchmont Harb N/A 70 N/A N/A S10 N/A Croton O-T Hud N/A 72 N/A N/A SW7 N/A Newburgh CLEAR 66 54 63 SW7 30.12R Montgomery PTCLDY 59 55 87 SW5 30.10S Poughkeepsie CLEAR 59 53 80 CALM 30.09S Albany MOCLDY 58 53 84 S5 30.07S $$ NJZ001-105-106-008-010-013-015-019>022-104-290500- NEW JERSEY CITY SKY/WX TMP DP RH WIND PRES REMARKS Newark/Liberty CLOUDY 72 50 45 SW9 30.12R Teterboro CLOUDY 72 50 45 SW8 30.11R Caldwell PTCLDY 70 52 52 CALM 30.13R Somerville CLOUDY 60 56 86 CALM 30.11S Linden FAIR 71 49 45 CALM 30.13S Perth Amboy N/A 68 N/A N/A SW12 N/A Sussex PTCLDY 59 57 93 CALM 30.12S Andover N/A 60 55 83 CALM 30.13S Trenton PTCLDY 67 54 63 SW6 30.13S Millville PTCLDY 67 61 81 CALM 30.16F Atlantic City CLOUDY 66 56 70 S8 30.17S Wrightstown PTCLDY 64 55 71 S5 30.13S Toms River PTCLDY 63 53 70 SW6 30.16S Belmar CLOUDY 67 52 58 SW7 30.16S $$ PAZ047>061-062-071-290500- EASTERN PENNSYLVANIA CITY SKY/WX TMP DP RH WIND PRES REMARKS Philadelphia CLOUDY 70 58 65 S7 30.15S Allentown PTCLDY 68 50 52 SW9 30.12F Scranton PTCLDY 66 49 54 VRB3 30.11S $$ CTZ002-004>006-009-010-012-RIZ004-006-007-MAZ004-011-015-290500- SOUTHERN NEW ENGLAND IN CT CITY SKY/WX TMP DP RH WIND PRES REMARKS Bradley INTL MOCLDY 64 54 69 S6 30.10R Hartford PTCLDY 65 57 75 S5 30.10R Danbury PTCLDY 59 54 83 CALM 30.13R Wtrbury/Oxford CLOUDY 63 52 67 CALM 30.14S Bridgeport MOCLDY 68 60 75 SW5 30.12R Meriden CLEAR 60 57 89 CALM 30.11R New Haven MOCLDY 67 59 75 SW6 30.12R Chester FAIR 64 59 82 SW6 30.13R Groton CLEAR 66 57 72 CALM 30.12R Wilimantic CLOUDY 60 57 89 CALM 30.12R IN RI CITY SKY/WX TMP DP RH WIND PRES REMARKS Providence PTCLDY 65 58 78 W12 30.11S Block Island CLEAR 65 60 84 SW13 30.13S Westerly MOCLDY 67 61 81 SW6 30.13S IN MA CITY SKY/WX TMP DP RH WIND PRES REMARKS Boston PTCLDY 68 50 52 SW9 30.08R Worcester PTCLDY 61 47 59 SW7 30.12R Westfield LGT RAIN 56 54 93 CALM N/A Provincetown CLEAR 63 58 83 SW12 30.10R Nantucket CLEAR 63 61 93 W12 30.12S $$ ANZ330-335-338-340-345-350-353-355-290500- COASTAL MARINE OBSERVATIONS STATION/POSITION TIME SKY/WX TEMP WIND PRES VSBY WAVE AIR SEA DIR/SP/G HT/PER (UTC) (F) (DEG/KT/KT) (MB) (MI) (FT/S) NY HARB ENTRANCE 0250 68 68 220/ 14/ 14 1019.7 2/ 4 20 S FIRE ISLAND 0350 69 69 230/ 19/ 25 1019.8 4/ 5 GREAT SOUTH BAY 0330 69 75 230/ 16/ 19 N/A 23 SSW MONTAUK P 0250 68 66 1020.5 3/ 5 15 E BARNEGAT LI 0330 67 N/A 3/ 4 HUDSON CANYON 0250 69 69 210/ 14/ 16 1020.9 2/ 4 KINGS POINT 0336 70 67 200/ 9/ 9 1019.6 EXECUTION ROCKS 0345 70 190/ 6/ 8 N/A CENTRAL LI SOUND 0300 69 210/ 14/ 17 N/A 2 EASTERN LI SOUND NOT AVBL ROBBINS REEF 0336 230/ 13/ 14 1020.5 $$ >>>>>>>>>>>>>>>>>>>>>>>>>>>> KEY <<<<<<<<<<<<<<<<<<<<<<<<<<< > < > SKY/WX - Sky Condition/Present Weather < > TMP - Temperature in Fahrenheit < > DP - Dew Point in Fahrenheit < > RH - Relative Humidity in Percent < > WIND - Direction (from) and Speed in MPH < > PRES - Mean Sea Level Pressure (inches of Hg) < > WCI - Wind Chill Index < > VSB - VISIBILITY IN MILES < > HX - HEAT INDEX < > TC - TEMPERATURE IN CELSIUS < > VRB - VARIABLE WIND DIRECTION < > < >>>>>>>>>>>>>>>>>>>>>>>>>>>> KEY <<<<<<<<<<<<<<<<<<<<<<<<<<<

USA.gov is the U.S. government's official web portal to all federal, state and local government web resources and services.